Location: *
(58.7167°N, 26.1833°E)
Time: 14:54:32
(UTC+00:00)

CSL-04 DEB - Pass Details

Date: 25 August 2019
Orbit: 546 x 629 km, 98.7° (Epoch: 16 September)

Event Time Altitude Azimuth Distance (km) Brightness Sun altitude
Exits shadow 22:18:04 56° 134° (SE) 664 4.4 -20.7°
Maximum altitude 22:18:47 75° 70° (ENE) 581 4.4 -20.7°
Drops below altitude 10° 22:22:45 10° 345° (NNW) 1,837 8.1 -20.7°
Sets 22:24:52 0° 343° (NNW) 2,732 9.2 -20.7°
